PST,Max TemperatureF,Mean TemperatureF,Min TemperatureF,Max Dew PointF,MeanDew PointF,Min DewpointF,Max Humidity, Mean Humidity, Min Humidity, Max Sea Level PressureIn, Mean Sea Level PressureIn, Min Sea Level PressureIn, Max VisibilityMiles, Mean VisibilityMiles, Min VisibilityMiles, Max Wind SpeedMPH, Mean Wind SpeedMPH, Max Gust SpeedMPH,PrecipitationIn, CloudCover, Events, WindDirDegrees
2013-2-1,68,49,30,37,33,27,92,59,26,30.25,30.21,30.14,10,10,7,6,0,8,0.00,0,,5
2013-2-2,66,50,33,38,34,29,89,62,34,30.30,30.24,30.19,10,10,10,7,0,8,0.00,0,,349
2013-2-3,70,51,31,41,35,29,92,60,27,30.23,30.17,30.09,10,10,9,6,0,7,0.00,0,,230
2013-2-4,62,49,35,42,37,32,92,67,42,30.17,30.10,30.05,10,10,9,5,1,6,0.00,0,,235
2013-2-5,59,48,36,44,39,33,92,75,57,30.15,30.06,30.01,10,9,6,10,2,14,0.00,3,,187
2013-2-6,59,45,30,38,32,27,89,60,30,30.18,30.12,30.05,10,9,1,8,3,9,0.00,1,,179
2013-2-7,52,48,43,41,37,34,89,71,52,30.08,30.03,29.98,10,9,4,18,8,23,0.04,7,Rain-Thunderstorm,212
2013-2-8,56,44,32,37,29,19,96,60,24,30.06,30.02,29.98,10,8,0,22,4,29,0.02,2,Fog-Rain,341
2013-2-9,59,49,38,30,24,21,59,42,24,30.11,30.06,30.02,10,10,10,20,9,24,0.00,0,,351
2013-2-10,63,49,34,31,27,21,75,49,23,30.17,30.11,30.05,10,10,10,25,6,32,0.00,0,,7
2013-2-11,67,52,37,33,29,24,64,43,22,30.25,30.17,30.12,10,10,10,14,6,17,0.00,0,,324
2013-2-12,68,50,31,35,31,28,89,57,24,30.36,30.31,30.26,10,10,10,21,2,24,0.00,0,,6
2013-2-13,73,53,32,37,31,28,82,53,24,30.33,30.27,30.18,10,10,10,15,4,18,0.00,0,,353
2013-2-14,71,63,54,34,31,26,46,33,19,30.32,30.27,30.21,10,10,10,31,14,39,0.00,0,,356
2013-2-15,73,55,37,37,31,26,64,42,19,30.29,30.25,30.20,10,10,10,12,4,16,0.00,0,,13
2013-2-16,69,52,35,38,34,30,82,54,26,30.27,30.14,30.03,10,10,10,7,1,7,0.00,0,,174
2013-2-17,66,53,40,36,24,13,79,48,16,30.08,30.01,29.93,10,10,9,24,8,32,0.00,0,,351
2013-2-18,57,43,29,40,32,24,78,57,36,29.99,29.91,29.84,10,10,9,9,3,15,0.00,2,,201
2013-2-19,49,45,40,38,35,31,82,69,56,29.85,29.76,29.70,10,10,5,29,10,36,0.05,6,Rain,216
2013-2-20,58,47,36,30,27,23,76,51,25,30.03,29.97,29.86,10,10,10,24,8,31,0.00,0,,359
2013-2-21,61,46,30,30,27,23,78,52,25,30.18,30.13,30.04,10,10,10,16,5,23,0.00,0,,355
2013-2-22,62,49,36,35,32,29,76,53,30,30.23,30.15,30.06,10,10,10,14,6,18,0.00,3,,217
2013-2-23,58,49,40,36,22,17,54,38,21,30.32,30.23,30.10,10,10,10,20,8,24,0.00,0,,353
2013-2-24,65,52,39,30,23,17,43,30,16,30.33,30.24,30.14,10,10,10,20,8,28,0.00,0,,347
2013-2-25,62,49,36,33,28,20,75,51,27,30.28,30.22,30.16,10,10,10,12,2,14,0.00,0,,50
2013-2-26,67,56,44,27,20,14,40,28,16,30.29,30.23,30.14,10,10,10,18,10,26,0.00,0,,349
2013-2-27,65,48,31,37,28,22,75,47,19,30.35,30.28,30.22,10,10,10,8,3,10,0.00,2,,348
2013-2-28,68,59,49,43,38,34,66,48,29,30.44,30.40,30.34,10,10,9,7,2,9,0.00,4,,345